sat.trackr.live / text

‹ back to catalog

STARLINK-32581

NORAD 62184 · 2024-225X

PAYLOAD ACTIVE UNKNOWN

§ Identity

Operator
Country
US
Launch date
2024-11-30
Launch site
AFWTR
Launch vehicle
Mass (kg)
RCS (m²)

Purposes: comms

External: N2YO · Heavens-Above · Gunter

§ Orbital elements

Epoch: 2026-05-24T21:45:06.042816Z

Period
96.11 min
Inclination
70.0019°
Eccentricity
0.0002270
Mean motion
14.98339716 rev/d
Perigee alt
570.4 km
Apogee alt
573.6 km
Semi-major
6,950.2 km
B*
-1.0381e-4
RAAN
322.1946°
Arg perigee
266.2851°
Mean anomaly
93.8048°
Rev number
8,154

§ Raw data

STARLINK-325811 62184U 24225X   26144.90631994 -.00001331  00000+0 -10381-3 0  99992 62184  70.0019 322.1946 0002270 266.2851  93.8048 14.98339716 81549

JSON: /api/v1/satellites/62184 · /tle

For live sub-satellite position, see the globe view (requires WebGL).

§ Visibility from observer

Set your observer location to see the next 7 days of passes ≥ 10°. The values pass through the URL so the page stays shareable.

No JS? Fill the form by hand. The geolocation button needs JavaScript.